Location: Meanaryar
(48.4161°N, 4.7315°W)
Time: 09:37:40
(UTC+00:00)

Cosmos 1092 Rocket - Pass Details

Date: 25 January 2021
Orbit: 954 x 995 km, 83.0° (Epoch: 02 March)

Event Time Altitude Azimuth Distance (km) Brightness Sun altitude
Rises 20:45:20 0° 244° (WSW) 3,647 7.6 -36.0°
Reaches altitude 10° 20:49:04 10° 267° (W) 2,698 7.0 -36.6°
Maximum altitude 20:52:32 15° 301° (WNW) 2,332 6.6 -37.1°
Drops below altitude 10° 20:56:00 10° 336° (NNW) 2,697 6.7 -37.7°
Sets 20:59:45 0° 359° (N) 3,646 7.2 -38.3°
